W1LH-4 Weather Reports


time (UTC)temp
C
wind
direction
speed
KPH
gust
KPH
rain 1hr
cm
rain 24hr
cm
rain mn
cm
humidity
%
barometer
mb
20260505083335 6 227 526.3 526.3 0.00 0.00 0.00 14 1008.2
20260505081841 6 225 4.8 6.4 0.00 0.00 0.00 15 1008.3
20260505080342 6 224 4.8 8.0 0.00 0.00 0.00 13 1008.4
20260505074847 6 229 4.8 8.0 0.00 0.00 0.00 14 1008.4
20260505073351 6 229 4.8 9.7 0.00 0.00 0.00 18 1008.6
20260505071852 6 212 4.8 9.7 0.00 0.00 0.00 25 1008.6
20260505070344 6 213 4.8 9.7 0.00 0.00 0.00 30 1008.6
20260505064848 6 216 6.4 11.3 0.00 0.00 0.00 35 1008.4
20260505063411 7 217 3.2 6.4 0.00 0.00 0.00 37 1008.5
20260505061836 7 217 4.8 6.4 0.00 0.00 0.00 32 1008.2
20260505060341 7 219 1.6 6.4 0.00 0.00 0.00 27 1008.4
20260505054842 6 219 1.6 3.2 0.00 0.00 0.00 27 1008.4
20260505053350 6 219 1.6 4.8 0.00 0.00 0.00 28 1007.9
20260505051911 7 213 6.4 9.7 0.00 0.00 0.00 33 1008.2
20260505050411 7 227 4.8 16.1 0.00 0.00 0.00 30 1008.2
20260505040341 8 238 0.0 4.8 0.00 0.00 0.00 64 1008.5
20260505034846 8 238 0.0 4.8 0.00 0.00 0.00 64 1008.3
20260505033347 8 239 3.2 8.0 0.00 0.00 0.00 67 1008.1
20260505031850 8 229 3.2 6.4 0.00 0.00 0.00 67 1008.1
20260505030357 8 229 3.2 6.4 0.00 0.00 0.00 68 1008.4
20260505024838 9 227 4.8 11.3 0.00 0.00 0.00 71 1008.7
20260505023340 9 223 3.2 6.4 0.00 0.00 0.00 72 1008.1
20260505021845 10 217 6.4 12.9 0.00 0.00 0.00 72 1008.4
20260505020349 9 240 6.4 11.3 0.00 0.03 0.00 72 1008.1
20260505014910 10 238 4.8 11.3 0.00 0.03 0.00 75 1007.9
20260505013352 11 342 3.2 6.4 0.00 0.03 0.00 74 1007.8
20260505011842 11 342 3.2 6.4 0.00 0.03 0.00 74 1007.7
20260505010405 11 342 4.8 6.4 0.00 0.05 0.00 75 1007.5
20260505004845 11 342 1.6 6.4 0.00 0.05 0.00 75 1007.5
20260505003351 11 342 1.6 6.4 0.00 0.05 0.00 75 1007.4
20260505001853 11 344 3.2 6.4 0.00 0.05 0.00 74 1006.8
20260505000354 11 345 3.2 4.8 0.00 0.05 0.00 74 1006.6
20260504234858 11 345 1.6 6.4 0.00 0.05 0.00 73 1006.3
20260504233344 11 344 3.2 8.0 0.00 0.05 0.00 72 1006.0
20260504231845 12 341 4.8 8.0 0.00 0.05 0.00 71 1005.9
20260504230346 12 349 6.4 9.7 0.00 0.10 0.00 69 1005.6
20260504224912 12 344 8.0 17.7 0.00 0.10 0.00 68 1005.3
20260504223352 12 325 8.0 19.3 0.00 0.10 0.00 67 1005.2
20260504221847 13 333 11.3 22.5 0.00 0.10 0.00 66 1005.1
20260504220355 13 315 12.9 25.7 0.00 0.18 0.00 64 1004.9
20260504214857 14 330 11.3 20.9 0.00 0.18 0.00 62 1004.7
20260504213336 14 323 9.7 25.7 0.00 0.18 0.00 61 1004.4
20260504211858 14 300 12.9 22.5 0.00 0.18 0.00 60 1004.2
20260504210343 13 275 9.7 27.4 0.00 0.25 0.00 61 1004.4
20260504204847 13 291 12.9 27.4 0.00 0.25 0.00 62 1004.2
20260504203349 13 291 14.5 32.2 0.00 0.25 0.00 61 1004.1
20260504201917 13 309 14.5 40.2 0.00 0.25 0.00 61 1004.3
20260504200336 14 294 19.3 37.0 0.00 0.30 0.00 60 1004.3
20260504194858 14 287 12.9 27.4 0.00 0.30 0.00 60 1004.2
20260504193336 13 265 22.5 38.6 0.00 0.30 0.00 60 1004.2
20260504191838 13 268 11.3 38.6 0.00 0.30 0.00 60 1004.3
20260504190358 12 306 11.3 24.1 0.00 0.48 0.00 65 1004.6
20260504184901 12 319 14.5 24.1 0.00 0.48 0.00 65 1004.7
20260504183344 12 311 11.3 30.6 0.00 0.48 0.00 61 1004.5
20260504181846 12 290 16.1 27.4 0.00 0.48 0.00 59 1004.5
20260504180348 13 235 9.7 20.9 0.00 0.84 0.00 52 1004.5
20260504174849 13 225 12.9 29.0 0.00 0.84 0.00 49 1003.7
20260504173354 14 268 14.5 22.5 0.00 0.84 0.00 47 1003.6
20260504171855 15 216 12.9 30.6 0.00 0.84 0.00 44 1003.6
20260504170354 15 211 12.9 38.6 0.00 1.02 0.00 45 1003.7
20260504160344 14 246 8.0 33.8 0.00 1.09 0.00 48 1004.4
20260504150355 12 304 16.1 25.7 0.00 1.17 0.00 52 1005.4
20260504140352 10 341 16.1 35.4 0.00 1.27 0.00 54 1005.8
20260504130343 8 304 16.1 27.4 0.00 1.42 0.00 58 1006.3
20260504110401 3 271 9.7 22.5 0.00 1.65 1.55 77 1005.8
20260504100350 2 294 8.0 16.1 0.00 1.70 1.55 77 1004.8